Regional Weather Roundup
Issued by NWS

Home | Current Version | Previous Version | Text Only | Print | Product List | Glossary On
Versions: 1 2 3 4 5 6 7 8 9 10 11 12 13 14 15 16 17 18 19 20 21 22 23 24 25 26 27 28 29 30 31 32 33 34 35 36 37 38 39 40 41 42 43 44 45 46 47 48 49 50
001
ASUS45 KBOI 061010
RWRID

IDAHO REGIONAL WEATHER ROUNDUP
NATIONAL WEATHER SERVICE BOISE ID
300 AM MST SAT FEB 06 2016

NOTE: "FAIR" INDICATES FEW OR NO CLOUDS BELOW 12000 FEET
WITH NO SIGNIFICANT WEATHER AND/OR OBSTRUCTIONS TO VISIBILITY

IDZ012-014-061100-
SOUTHWEST IDAHO


CITY           SKY/WX    TMP DP  RH WIND       PRES   REMARKS
BOISE          CLOUDY    34  27  75 SE15      30.42R WCI  24
CALDWELL       CLOUDY    33  27  78 SE10      30.47R WCI  25
MOUNTAIN HOME  CLOUDY    28  28 100 SE17      30.44R WCI  16
$$

IDZ016-017-061100-
SOUTHCENTRAL IDAHO


CITY           SKY/WX    TMP DP  RH WIND       PRES   REMARKS
BURLEY         PTCLDY    22  19  89 E3        30.43F
JEROME         CLEAR     18  14  84 NE21      30.43F WCI   1
TWIN FALLS     CLEAR     22  19  89 E8        30.42F WCI  12
$$

IDZ019>023-061100-
SOUTHEAST IDAHO


CITY           SKY/WX    TMP DP  RH WIND       PRES   REMARKS
IDAHO FALLS    CLOUDY    20  16  84 E5        30.47S WCI  13
POCATELLO      CLOUDY    13  11  92 CALM      30.48F
REXBURG        CLOUDY    19  16  88 CALM      30.46S
$$

IDZ006-010-011-018-031-032-061100-
CENTRAL IDAHO MOUNTAINS


CITY           SKY/WX    TMP DP  RH WIND       PRES   REMARKS
MCCALL         CLOUDY    26  24  92 N5        30.34S WCI  20
HAILEY         PTCLDY    19  14  79 NW9       30.44R WCI   9
STANLEY          N/A     14  10  84 N5        30.36R WCI   6
SALMON         CLOUDY    10   7  85 CALM      30.38R
CHALLIS        PTCLDY    12   9  87 S5        30.34F WCI   4
$$

IDZ002-004-006-007-026-061100-
NORTHERN IDAHO


CITY           SKY/WX    TMP DP  RH WIND       PRES   REMARKS
LEWISTON       MOCLDY    46  31  55 SW5       30.21S
LOWELL           N/A     37  35  92 CALM      30.28F
COEUR D`ALENE  CLOUDY    43  36  75 SW22G29   30.06S
MULLAN PASS    SNOW      28  26  92 SW18G35   29.99F VSB 1/2 WCI  15
$$




USA.gov is the U.S. government's official web portal to all federal, state and local government web resources and services.